Location: Unnamed
(48.6007°N, 2.4808°E)
Time: 09:42:02
(UTC+01:00)

deb NNS O-9 - Visible Passes

Search period start: 08 December 2023 00:00
Search period end: 18 December 2023 00:00
Orbit: 821 x 1133 km, 90.1° (Epoch: 07 December)

Date Brightness Start Highest point End Pass type
(mag) Time Alt. Az. Time Alt. Az. Time Alt. Az.
10 Dec ? 07:35:51 10° NNE 07:39:47 16° ENE 07:43:38 10° ESE visible
13 Dec ? 07:09:49 10° NE 07:12:02 12° ENE 07:14:14 10° E visible
14 Dec ? 07:33:45 10° NNE 07:38:26 19° ENE 07:42:56 10° ESE visible
17 Dec ? 07:07:14 10° NE 07:10:43 14° ENE 07:14:05 10° E visible
